{"data":{"norad_id":28628,"epoch":"2026-09-19T17:39:59.270688Z","epoch_age_seconds":84111,"freshness":"FRESH","line1":"1 28628U 05009A   26262.73610267  .00000031  00000+0  00000+0 0  9992","line2":"2 28628   5.2992  42.8137 0002703 138.2344 260.7231  1.00272486 78621","mean_motion":1.00272486,"eccentricity":0.0002703,"inclination_deg":5.2992,"raan_deg":42.8137,"arg_perigee_deg":138.2344,"mean_anomaly_deg":260.7231,"bstar":0,"rev_number":7862,"period_min":1436.0868643468,"perigee_km":35775.001372657,"apogee_km":35797.79552052,"semimajor_km":42164.535446588,"source":"CELESTRAK","updated_at":"2026-09-20T09:00:35.124378Z"}}